Regional Weather Roundup
Issued by NWS Columbia, SC

Home | Current Version | Previous Version | Text Only | Print | Product List | Glossary On
Versions: 1 2 3 4 5 6 7 8 9 10 11 12 13 14 15 16 17 18 19 20 21 22 23 24 25 26 27 28
000
ASUS42 KCAE 280410
RWRCAE
REGIONAL WEATHER ROUNDUP
NATIONAL WEATHER SERVICE COLUMBIA SC
1200 AM EDT SAT MAY 28 2016

NOTE: "FAIR" INDICATES FEW OR NO CLOUDS BELOW 12,000 FEET WITH NO
SIGNIFICANT WEATHER AND/OR OBSTRUCTIONS TO VISIBILITY.

NOT ALL STATIONS ARE QUALITY CONTROLLED BY THE NATIONAL
WEATHER SERVICE. USE DATA WITH CAUTION...ESPECIALLY
DEWPOINT OBSERVATIONS.

SCZ001>056-GAZ040-063>065-077-280500-
...UPSTATE SOUTH CAROLINA...

CITY           SKY/WX    TMP DP  RH WIND       PRES   REMARKS
ANDERSON       CLOUDY    74  63  68 CALM      30.12R
LIBERTY        PTCLDY    66  63  91 CALM      30.12R
SPARTANBURG    PTCLDY    68  63  83 CALM      30.12R
CLEMSON        CLOUDY    75  64  68 CALM      30.13R
GREENVILLE     PTCLDY    75  61  61 SE7       30.14R
GREENWOOD      CLEAR     70  59  68 SE6       30.13R
GREER          CLEAR     69  63  81 SE5       30.12R
ROCK HILL      CLEAR     73  55  53 S3        30.14R
CHESTER        CLEAR     70  55  60 SE5       30.14S
LAURENS        CLEAR     72  61  68 SE6       30.12R


...CENTRAL SOUTH CAROLINA...

CITY           SKY/WX    TMP DP  RH WIND       PRES   REMARKS
COLUMBIA APT   CLEAR     72  56  57 CALM      30.11R
COLUMBIA OWENS CLEAR     73  55  53 CALM      30.12R
MCENTIRE ANGB  CLEAR     66  55  69 E5        30.12R
ORANGEBURG     CLEAR     67  60  78 CALM      30.12R
SUMTER SHAW    CLEAR     68  57  66 S2        30.11R
NEWBERRY       CLEAR     70  57  64 SE3       30.15R
AIKEN          FAIR      68  59  73 SE3       30.15R
BARNWELL       FAIR      72  64  78 CALM      30.12R
MANNING        FAIR      63  59  88 CALM      30.12S
LANCASTER      CLEAR     68  57  68 E5        30.13S
WINNSBORO      CLEAR     70  54  56 SE6       30.13R


...EASTERN AND COASTAL SOUTH CAROLINA...

CITY           SKY/WX    TMP DP  RH WIND       PRES   REMARKS
MYRTLE BEACH   PTCLDY    73  61  64 E9        30.14S
N MYRTLE BCH   PTCLDY    75  66  73 E7        30.12S
CONWAY         FAIR      63  61  94 CALM      30.12F
MARION         FAIR      61  59  94 CALM      30.14R
HARTSVILLE     FAIR      68  55  64 SE3       30.14R
FLORENCE       CLEAR     67  58  72 CALM      30.13S
DARLINGTON     CLEAR     66  59  78 CALM      30.15R
CHARLESTON APT MOCLDY    74  64  71 E5        30.10S
MOUNT PLEASANT MOCLDY    73  66  78 CALM      30.10S
WALTERBORO     CLEAR     64  64 100 CALM      30.12R
BEAUFORT       CLEAR     70  66  87 N5        30.10R


...EASTERN GEORGIA...

CITY           SKY/WX    TMP DP  RH WIND       PRES   REMARKS
AUGUSTA BUSH F CLEAR     67  61  81 CALM      30.10R
AUGUSTA DANIEL CLEAR     73  60  63 SE6       30.12R
THOMSON        CLEAR     72  63  71 CALM      30.15R
WASHINGTON     FAIR      75  64  69 S6        30.11R
CLAXTON        FAIR      66  65  96 CALM      30.10R
SYLVANIA       PTCLDY    70  65  84 CALM      30.11S
STATESBORO     CLEAR     66  65  95 CALM      30.10S
SAVANNAH       CLEAR     70  65  84 NE5       30.09S


...SOUTHERN NORTH CAROLINA...

CITY           SKY/WX    TMP DP  RH WIND       PRES   REMARKS
CHARLOTTE      PTCLDY    72  59  63 S7        30.14R
WADESBORO      CLEAR     71  56  59 CALM      30.14R
ROCKINGHAM     CLEAR     69  58  67 SE3       30.14S
RUTHERFORDTON  PTCLDY    67  66  96 CALM      30.15R
ASHEVILLE      PTCLDY    65  61  87 CALM      30.19R

$$




USA.gov is the U.S. government's official web portal to all federal, state and local government web resources and services.